Location: Doux
(49.5045°N, 4.4321°E)
Time: 06:27:21
(UTC+00:00)

AQUA - Pass Details

Date: 23 May 2024
Orbit: 693 x 697 km, 98.3° (Epoch: 19 June)

Event Time Altitude Azimuth Distance (km) Brightness Sun altitude
Rises 01:57:47 0° 18° (NNE) 3,087 8.8 -13.4°
Reaches altitude 10° 02:00:06 10° 23° (NNE) 2,164 7.7 -13.2°
Maximum altitude 02:04:45 54° 100° (E) 850 4.4 -12.8°
Enters shadow 02:09:14 11° 178° (S) 2,101 5.8 -12.3°
